Weather History for KAVL - February, 2012

Change the Weather History Date:

Thursday, February 23, 2012

  Actual Average Record
Temperature  
Mean Temperature 57 °F 42 °F  
Max Temperature 71 °F 53 °F 76 °F (1982)
Min Temperature 42 °F 31 °F 10 °F (1939)
Degree Days  
Heating Degree Days 8 23  
Month to date heating degree days 496 578  
Since 1 July heating degree days 2704 3105  
Cooling Degree Days 0 0  
Month to date cooling degree days 0 0  
Year to date cooling degree days 0 0  
Growing Degree Days 6 (Base 50)    
Moisture  
Dew Point 46 °F    
Average Humidity 72    
Maximum Humidity 100    
Minimum Humidity 44    
Precipitation  
Precipitation T in 0.14 in 2.39 in (1994)
Month to date precipitation 1.32 3.10  
Year to date precipitation 5.17 6.77  
Snow  
Snow 0.00 in 0.00 in 3.80 in (1966)
Month to date snowfall T 1.8  
Since 1 July snowfall T 6.9  
Snow Depth 0.00 in    
Sea Level Pressure  
Sea Level Pressure 29.63 in    
Wind  
Wind Speed 7 mph (SSW)    
Max Wind Speed 23 mph    
Max Gust Speed 32 mph    
Visibility 4 miles    
Events Fog    
T = Trace of Precipitation, MM = Missing Value Source: NWS Daily Summary

Daily Weather History Graph

Daily Weather History Graph

Search for Another Location

Airport or City:

Trip Planner

Search our weather history database for the weather conditions in past years. The results will help you decide how hot, cold, wet, or windy it might be!

Date:

Astronomy

Feb. 23, 2012 Rise Set
Actual Time 7:08 AM EST 6:19 PM EST
Civil Twilight 6:42 AM EST 6:45 PM EST
Nautical Twilight 6:12 AM EST 7:14 PM EST
Astronomical Twilight 5:43 AM EST 7:44 PM EST
Moon 7:39 AM EST (2/23) 8:17 PM EST (2/23)
Length of Visible Light 12h 02m
Length of Day
11h 11m
Waxing Crescent, 3% of the Moon is Illuminated
Feb 23
Waxing Crescent
Feb 29
First Quarter
Mar 8
Full
Mar 14
Last Quarter
Mar 22
New

Hourly Weather History & Observations

Time (EST) Temp. Windchill Dew Point Humidity Pressure Visibility Wind Dir Wind Speed Gust Speed Precip Events Conditions
12:15 AM 48.2 °F - 46.4 °F 93% 29.62 in 1.8 mi Calm Calm - 0.00 in   Scattered Clouds
12:24 AM 48.2 °F - 46.4 °F 93% 29.62 in 3.0 mi Calm Calm - 0.00 in   Partly Cloudy
12:54 AM 46.0 °F - 46.0 °F 100% 29.60 in 3.0 mi Calm Calm - 0.00 in   Mostly Cloudy
1:54 AM 46.9 °F - 46.0 °F 97% 29.60 in 6.0 mi Calm Calm - 0.00 in   Mostly Cloudy
2:09 AM 46.4 °F - 44.6 °F 93% 29.63 in 3.0 mi Calm Calm - N/A   Mostly Cloudy
2:13 AM 46.4 °F 43.5 °F 44.6 °F 93% 29.63 in 1.5 mi NNW 5.8 mph - N/A   Mostly Cloudy
2:15 AM 46.4 °F 42.9 °F 44.6 °F 93% 29.63 in 0.8 mi NNW 6.9 mph - N/A   Mostly Cloudy
2:26 AM 46.4 °F 44.3 °F 44.6 °F 93% 29.63 in 0.5 mi North 4.6 mph - N/A Fog Fog
2:37 AM 46.4 °F - 46.4 °F 100% 29.63 in 1.5 mi Calm Calm - N/A   Overcast
2:46 AM 44.6 °F - 44.6 °F 100% 29.63 in 0.8 mi Calm Calm - N/A   Overcast
2:54 AM 46.0 °F - 45.0 °F 96% 29.59 in 0.5 mi Calm Calm - N/A Fog Fog
3:01 AM 46.4 °F - 44.6 °F 93% 29.63 in 0.8 mi Calm Calm - N/A   Mist
3:10 AM 46.4 °F - 46.4 °F 100% 29.62 in 0.5 mi Calm Calm - N/A Fog Fog
3:38 AM 46.4 °F 43.5 °F 44.6 °F 93% 29.63 in 0.2 mi North 5.8 mph - N/A Fog Fog
3:54 AM 45.0 °F - 44.1 °F 97% 29.59 in 0.2 mi Calm Calm - N/A Fog Fog
4:08 AM 44.6 °F 43.1 °F 44.6 °F 100% 29.63 in 0.2 mi South 3.5 mph - N/A Fog Fog
4:19 AM 44.6 °F - 44.6 °F 100% 29.63 in 0.2 mi Calm Calm - N/A Fog Fog
4:46 AM 44.6 °F 42.2 °F 44.6 °F 100% 29.65 in 0.5 mi NNW 4.6 mph - N/A Fog Fog
4:54 AM 44.1 °F 41.5 °F 44.1 °F 100% 29.62 in 0.5 mi NNW 4.6 mph - N/A Fog Fog
5:34 AM 44.6 °F - 44.6 °F 100% 29.65 in 1.5 mi Calm Calm - N/A   Overcast
5:40 AM 44.6 °F - 44.6 °F 100% 29.65 in 3.0 mi Calm Calm - N/A   Overcast
5:54 AM 44.1 °F - 43.0 °F 96% 29.62 in 4.0 mi Calm Calm - N/A   Overcast
6:08 AM 42.8 °F - 42.8 °F 100% 29.65 in 1.8 mi Calm Calm - N/A   Overcast
6:12 AM 42.8 °F 41.1 °F 42.8 °F 100% 29.65 in 0.8 mi East 3.5 mph - N/A   Overcast
6:45 AM 42.8 °F 41.1 °F 42.8 °F 100% 29.66 in 1.5 mi Variable 3.5 mph - N/A   Overcast
6:54 AM 44.6 °F 43.1 °F 42.8 °F 93% 29.66 in 2.5 mi Variable 3.5 mph - N/A   Overcast
7:04 AM 42.8 °F 41.1 °F 42.8 °F 100% 29.67 in 0.8 mi Variable 3.5 mph - N/A   Mostly Cloudy
7:13 AM 42.8 °F - 42.8 °F 100% 29.67 in 0.2 mi Calm Calm - N/A Fog Fog
7:41 AM 42.8 °F - 42.8 °F 100% 29.67 in 0.2 mi Calm Calm - N/A Fog Fog
7:54 AM 43.0 °F - 43.0 °F 100% 29.65 in 0.2 mi Calm Calm - N/A Fog Fog
8:05 AM 42.8 °F - 42.8 °F 100% 29.68 in 0.5 mi Calm Calm - N/A Fog Fog
8:52 AM 46.4 °F - 44.6 °F 93% 29.70 in 1.5 mi Calm Calm - N/A   Mostly Cloudy
8:54 AM 46.0 °F - 45.0 °F 96% 29.67 in 3.0 mi Calm Calm - N/A   Mostly Cloudy
9:08 AM 46.4 °F - 46.4 °F 100% 29.70 in 2.5 mi Calm Calm - N/A   Scattered Clouds
9:54 AM 52.0 °F - 48.9 °F 89% 29.68 in 10.0 mi Calm Calm - N/A   Clear
10:54 AM 61.0 °F - 48.0 °F 62% 29.65 in 10.0 mi SE 3.5 mph - N/A   Clear
11:54 AM 66.0 °F - 48.0 °F 52% 29.63 in 10.0 mi Variable 4.6 mph - N/A   Clear
12:54 PM 69.1 °F - 51.1 °F 53% 29.61 in 10.0 mi SSW 12.7 mph 24.2 mph N/A   Clear
1:54 PM 69.1 °F - 50.0 °F 51% 29.58 in 10.0 mi SSW 19.6 mph 27.6 mph N/A   Scattered Clouds
2:54 PM 70.0 °F - 48.0 °F 46% 29.57 in 10.0 mi South 17.3 mph 32.2 mph N/A   Scattered Clouds
3:54 PM 69.1 °F - 46.9 °F 45% 29.56 in 10.0 mi SSW 18.4 mph 31.1 mph N/A   Clear
4:54 PM 69.1 °F - 46.0 °F 44% 29.57 in 10.0 mi SSW 15.0 mph 25.3 mph N/A   Clear
5:54 PM 66.9 °F - 48.9 °F 52% 29.57 in 10.0 mi SSW 6.9 mph 18.4 mph N/A   Scattered Clouds
6:54 PM 64.0 °F - 50.0 °F 60% 29.58 in 10.0 mi South 6.9 mph - N/A   Partly Cloudy
7:54 PM 64.0 °F - 48.9 °F 58% 29.59 in 10.0 mi South 3.5 mph - N/A   Clear
8:54 PM 64.0 °F - 48.9 °F 58% 29.59 in 10.0 mi SSW 9.2 mph - N/A   Scattered Clouds
9:54 PM 62.1 °F - 50.0 °F 65% 29.60 in 10.0 mi SSE 5.8 mph - N/A   Partly Cloudy
10:54 PM 63.0 °F - 52.0 °F 67% 29.57 in 10.0 mi South 13.8 mph - N/A   Partly Cloudy
11:54 PM 63.0 °F - 53.1 °F 70% 29.55 in 10.0 mi SSW 16.1 mph 23.0 mph N/A   Clear